{"data":{"norad_id":68993,"intl_designator":"2026-100P","name":"YAM-13","alt_names":[],"object_type":"PAYLOAD","status":"ACTIVE","operator":null,"country":"US","launch_date":"2026-05-03","launch_site_code":"AFWTR","launch_vehicle":null,"mission":null,"orbit_class":"UNKNOWN","rcs_meters":null,"size_class":null,"mass_kg":null,"dimensions":null,"purposes":[],"wikipedia_slug":null,"has_3d_model":false,"image_url":null,"decayed_at":null,"tle_current":{"epoch":"2026-09-19T12:47:27.043296Z","epoch_age_seconds":102819,"freshness":"FRESH","line1":"1 68993U 26100P   26262.53295189  .00001035  00000+0  11187-3 0  9993","line2":"2 68993  97.7768 158.4080 0001564 101.5269 258.6124 14.90439139 20752","mean_motion":14.90439139,"eccentricity":0.0001564,"inclination_deg":97.7768,"raan_deg":158.408,"arg_perigee_deg":101.5269,"mean_anomaly_deg":258.6124,"bstar":0.00011187,"rev_number":2075,"period_min":96.615820285433,"perigee_km":595.47448027073,"apogee_km":597.65616715759,"semimajor_km":6974.7023237142,"source":"CELESTRAK","updated_at":"2026-09-20T09:00:24.602196Z"}}}